Location: Arroyo de San Miguel
(40.9167°N, 4.6667°W)
Time: 01:27:11
(UTC+00:00)

SeaSat 1 - Pass Details

Date: 19 May 2025
Orbit: 738 x 740 km, 108.0° (Epoch: 24 June)

Event Time Altitude Azimuth Distance (km) Brightness Sun altitude
Exits shadow 23:16:26 40° 265° (W) 1,081 3.3 -27.6°
Drops below altitude 10° 23:20:33 10° 320° (NW) 2,254 5.7 -27.8°
Sets 23:22:56 0° 327° (NNW) 3,181 6.8 -27.9°
